Zurück zum Katalog

DELTA 1 DEB

AktivSSO
NORAD 21678·DEBRIS·🇺🇸 United States

Gestartet Jun 12, 1975 von Vandenberg Space Force Base

Loading…

Nächste Überflüge (nächste 24 Stunden)

TLE

AktuellSource: Space-Track

Epoche: Sep 14, 2026, 14:31 UTC

1 21678U 75052JE  26257.60486437  .00001564  00000-0  28676-2 0  9990
2 21678 100.0174 163.2285 0354639  94.6940  22.1700 13.20108619688306

Verfolge DELTA 1 DEB in Echtzeit mit AllMySat

Download on the App Store